Aérodrome :
LOGIN :

S'inscrire | Disclaimer

   EN    FR    IT 

 










Légende :    VFR   VFR Marginal   IFR   IFR Intensif   IFR Très Intensif
Visi : 
Plafond : 
>= 8 km
>= 3000ft
5 à 8 km
1000 à 3000 ft
1500m à 5 km
500 à 1000 ft
800 à 1500m
200 à 500 ft
< 800m
< 200 ft
Symboles :   Orages  Brouillard  Fortes neiges  Fortes précipitations  Vent > 20 kt
SIGMETs :   Divers  Orages  Givrage  Turbulence  Onde Orograph.  Cendres Volcan.






- Altitude de l'aérodrome : 1585 ft
- Code IATA : SIR


LSGS - Sion

DERNIER METAR :
  • 170250Z AUTO 00000KT 0450 SN VV002 M02/M02 Q1019

METARs EXPIRÉS :
  • 170220Z AUTO 00000KT 0450 +SN VV002 M02/M02 Q1020
  • 170150Z AUTO VRB01KT 0600 SN VV003 M02/M02 Q1020
  • 170120Z AUTO 00000KT 0550 SN VV003 M01/M01 Q1020 REFZDZ
  • 170050Z AUTO VRB01KT 0800 FZFG NCD M01/M01 Q1020 RESN
  • 170020Z AUTO 00000KT 0650 SN VV004 M01/M01 Q1020

Prévision TAF périmée.



MET'MAP, la Météo Aéronautique d'un coup d'oeil ! - Copyright ORBIFLY Décembre 2007 - Disclaimer

ORBIFLY MET'MAP TEAM :

Programmation & Développement : Alexandra Zaïnal
Sur une idée originale de : Baudouin d'Aumeries
Assistance à la programmation : Marc-Olivier Méhu
Soutien technique & logistique : Manuel Goepfert

Contact : metmap@orbifly.com




SOURCES & CREDITS :

   NOAA